Skip Page Navigation
NASA JPL Caltech
NASA Logo - Jet Propulsion Laboratory + View the NASA Portal
+ Near-Earth Object (NEO) Program
Search JPL
JPL Home Earth Solar System Stars & Galaxies Technology
JPL Solar System Dynamics
BODIES ORBITS EPHEMERIDES TOOLS PHYSICAL DATA DISCOVERY FAQ SITE MAP
JPL Small-Body Database Browser
Search: [ help ]  
(2000 GF2)
Classification: Apollo [NEO, PHA]          SPK-ID: 3031986
Ephemeris | Orbit Diagram | Orbital Elements | Physical Parameters | Close-Approach Data ]

[ hide orbit diagram ]
Orbit Diagram
Note: Make sure you have Java enabled on your browser to see the applet. This applet is provided as a 3D orbit visualization tool. The applet was implemented using 2-body methods, and hence should not be used for determining accurate long-term trajectories (over several years or decades) or planetary encounter circumstances. For accurate long-term ephemerides, please instead use our Horizons system.
Orbit Viewer

Additional Notes: the orbits shown in the applet are color coded. The planets are white lines, and the asteroid/comet is a blue line. The bright white line indicates the portion of the orbit that is above the ecliptic plane, and the darker portion is below the ecliptic plane. Likewise for the asteroid/comet orbit, the light blue indicates the portion above the ecliptic plane, and the dark blue the portion below the ecliptic plane.

Orbit Viewer applet originally written and kindly provided by Osamu Ajiki (AstroArts), and further modified by Ron Baalke (JPL).


Orbital Elements at Epoch 2456400.5 (2013-Apr-18.0) TDB
Reference: JPL 24 (heliocentric ecliptic J2000)
 Element Value Uncertainty (1-sigma)   Units 
e .3776087434346598 1.8721e-07  
a 1.340982409591223 3.6044e-08 AU
q .8346157269374989 2.2894e-07 AU
i 9.627530210751392 2.0906e-05 deg
node 176.1063123609249 1.294e-05 deg
peri 107.9916177863722 1.8108e-05 deg
M 97.47276147094503 0.00011159 deg
tp 2456246.927371451152
(2012-Nov-15.42737145)
0.00016972 JED
period 567.195854957541
1.55
2.2868e-05
6.261e-08
d
yr
n .6347013943304448 2.559e-08 deg/d
Q 1.847349092244947 4.9655e-08 AU
  Orbit Determination Parameters
   # obs. used (total)      259  
   data-arc span      1390 days (3.81 yr)  
   first obs. used      2000-04-03  
   last obs. used      2004-01-23  
   planetary ephem.      DE405  
   SB-pert. ephem.      SB405-CPV-2  
   condition code      0  
   fit RMS      .62537  
   data source      ORB  
   producer      Otto Matic  
   solution date      2011-Sep-14 19:37:39  

Additional Information
 Earth MOID = .0112675 AU 
 T_jup = 4.807 
[ show covariance matrix ]

Ephemeris | Orbit Diagram | Orbital Elements | Physical Parameters | Close-Approach Data ]

Physical Parameter Table
Parameter Symbol Value Units Sigma Reference Notes
absolute magnitude H 20.375 mag .50898 24 autocmod 2.5a

[ show close-approach data ]
Alternate Designations
 2000 GF2 = 2003 SO84 
Ephemeris | Orbit Diagram | Orbital Elements | Physical Parameters | Close-Approach Data ]
ABOUT SSD CREDITS/AWARDS PRIVACY/COPYRIGHT GLOSSARY LINKS
FirstGov 2013-May-24 17:54 UT
(server date/time)  
NASA Home Page
Site Manager:   Donald K. Yeomans
Webmaster  Alan B. Chamberlin